Weather History for VTBD - July, 2013

Change the Weather History Date:

Monday, July 15, 2013

  Actual Average Record
Temperature  
Mean Temperature 88 °F -  
Max Temperature 95 °F 90 °F 98 °F (1996)
Min Temperature 80 °F 77 °F 77 °F (2000)
Cooling Degree Days 22    
Growing Degree Days 38 (Base 50)    
Moisture  
Dew Point 72 °F    
Average Humidity 63    
Maximum Humidity 79    
Minimum Humidity 35    
Precipitation  
Precipitation 0.00 in 0.22 in - ()
Sea Level Pressure  
Sea Level Pressure 29.68 in    
Wind  
Wind Speed 8 mph ()    
Max Wind Speed 22 mph    
Max Gust Speed -    
Visibility 6.2 miles    
Events Rain    
Averages and records for this station are not official NWS values.
T = Trace of Precipitation, MM = Missing Value Source: Averaged Metar Reports

Daily Weather History Graph

Daily Weather History Graph

Search for Another Location

Airport or City:

Trip Planner

Search our weather history database for the weather conditions in past years. The results will help you decide how hot, cold, wet, or windy it might be!

Date:

Astronomy

Jul. 15, 2013 Rise Set
Actual Time 5:57 AM ICT 6:49 PM ICT
Civil Twilight 5:34 AM ICT 7:12 PM ICT
Nautical Twilight 5:06 AM ICT 7:40 PM ICT
Astronomical Twilight 4:39 AM ICT 8:07 PM ICT
Moon 11:29 AM ICT (7/15) 11:36 PM ICT (7/15)
Length of Visible Light 13h 38m
Length of Day
12h 52m
Waxing Crescent, 40% of the Moon is Illuminated
Jul 15
Waxing Crescent
Jul 16
First Quarter
Jul 23
Full
Jul 30
Last Quarter
Aug 7
New

Hourly Weather History & Observations

Time (ICT) Temp. Heat Index Dew Point Humidity Pressure Visibility Wind Dir Wind Speed Gust Speed Precip Events Conditions
12:00 AM 86.0 °F 91.8 °F 71.6 °F 62% 29.71 in 6.2 mi WSW 8.1 mph - N/A   Mostly Cloudy
12:30 AM 84.2 °F 89.6 °F 71.6 °F 66% 29.71 in 6.2 mi West 4.6 mph - N/A   Mostly Cloudy
1:00 AM 84 °F - 72 °F 59% 29.72 in 6 mi West 17.9 mph - -   Scattered Clouds
1:00 AM 84.2 °F 89.6 °F 71.6 °F 66% 29.71 in 6.2 mi West 9.2 mph - N/A   Mostly Cloudy
1:30 AM 82.4 °F 87.2 °F 71.6 °F 70% 29.68 in 6.2 mi West 5.8 mph - N/A   Mostly Cloudy
2:00 AM 82.4 °F 88.2 °F 73.4 °F 74% 29.68 in 6.2 mi WSW 10.4 mph - N/A   Mostly Cloudy
2:30 AM 82.4 °F 87.2 °F 71.6 °F 70% 29.68 in 6.2 mi WSW 6.9 mph - N/A   Mostly Cloudy
3:00 AM 82.4 °F 87.2 °F 71.6 °F 70% 29.65 in 6.2 mi WSW 9.2 mph - N/A   Mostly Cloudy
3:30 AM 82.4 °F 87.2 °F 71.6 °F 70% 29.65 in 6.2 mi WSW 4.6 mph - N/A   Mostly Cloudy
4:00 AM 82 °F - 72 °F 65% 29.67 in 6 mi WSW 11.2 mph - -   Scattered Clouds
4:00 AM 82.4 °F 87.2 °F 71.6 °F 70% 29.65 in 6.2 mi WSW 5.8 mph - N/A   Mostly Cloudy
4:30 AM 82.4 °F 87.2 °F 71.6 °F 70% 29.65 in 6.2 mi SW 9.2 mph - N/A   Mostly Cloudy
5:00 AM 82.4 °F 87.2 °F 71.6 °F 70% 29.68 in 6.2 mi WSW 4.6 mph - N/A   Mostly Cloudy
5:30 AM 80.6 °F 84.6 °F 71.6 °F 74% 29.68 in 6.2 mi West 4.6 mph - N/A   Mostly Cloudy
6:00 AM 82.4 °F 89.5 °F 75.2 °F 79% 29.68 in 6.2 mi WSW 6.9 mph - N/A   Mostly Cloudy
6:30 AM 82.4 °F 87.2 °F 71.6 °F 70% 29.68 in 6.2 mi WSW 10.4 mph - N/A   Mostly Cloudy
7:00 AM 82 °F - 74 °F 70% 29.71 in 6 mi WSW 8.9 mph - -   Scattered Clouds
7:00 AM 82.4 °F 88.2 °F 73.4 °F 74% 29.71 in 6.2 mi WSW 4.6 mph - N/A   Mostly Cloudy
7:30 AM 82.4 °F 87.2 °F 71.6 °F 70% 29.71 in 6.2 mi West 5.8 mph - N/A   Mostly Cloudy
8:00 AM 82.4 °F 87.2 °F 71.6 °F 70% 29.71 in 6.2 mi West 3.5 mph - N/A   Mostly Cloudy
8:30 AM 84.2 °F 89.6 °F 71.6 °F 66% 29.71 in 6.2 mi West 4.6 mph - N/A   Mostly Cloudy
9:00 AM 86.0 °F 91.8 °F 71.6 °F 62% 29.71 in 6.2 mi West 9.2 mph - N/A   Mostly Cloudy
9:30 AM 86.0 °F 91.8 °F 71.6 °F 62% 29.71 in 6.2 mi WSW 5.8 mph - N/A   Mostly Cloudy
10:00 AM 88 °F - 72 °F 50% 29.73 in 6 mi West 17.9 mph - -   Scattered Clouds
10:00 AM 87.8 °F 93.8 °F 71.6 °F 58% 29.71 in 6.2 mi West 9.2 mph - N/A   Mostly Cloudy
10:30 AM 87.8 °F 93.8 °F 71.6 °F 58% 29.71 in 6.2 mi West 9.2 mph - N/A   Mostly Cloudy
11:00 AM 89.6 °F 96.2 °F 71.6 °F 55% 29.71 in 6.2 mi WNW 6.9 mph - N/A   Mostly Cloudy
11:30 AM 89.6 °F 96.2 °F 71.6 °F 55% 29.71 in 6.2 mi WSW 6.9 mph - N/A   Mostly Cloudy
12:00 PM 91.4 °F 98.4 °F 71.6 °F 52% 29.68 in 6.2 mi West 6.9 mph - N/A   Mostly Cloudy
12:30 PM 91.4 °F 98.4 °F 71.6 °F 52% 29.68 in 6.2 mi WSW 5.8 mph - N/A   Mostly Cloudy
1:00 PM 92 °F - 72 °F 42% 29.69 in 6 mi West 17.9 mph - -   Scattered Clouds
1:00 PM 93.2 °F 100.5 °F 71.6 °F 49% 29.68 in 6.2 mi West 9.2 mph - N/A   Mostly Cloudy
1:30 PM 93.2 °F 100.5 °F 71.6 °F 49% 29.68 in 6.2 mi WSW 5.8 mph - N/A   Mostly Cloudy
2:00 PM 93.2 °F 98.8 °F 69.8 °F 46% 29.65 in 6.2 mi WNW 4.6 mph - N/A   Mostly Cloudy
2:30 PM 93.2 °F 98.8 °F 69.8 °F 46% 29.65 in 6.2 mi WNW 9.2 mph - N/A   Mostly Cloudy
3:00 PM 93.2 °F 100.5 °F 71.6 °F 49% 29.62 in 6.2 mi WSW 6.9 mph - N/A   Mostly Cloudy
3:30 PM 93.2 °F 100.5 °F 71.6 °F 49% 29.62 in 6.2 mi WSW 6.9 mph - N/A   Mostly Cloudy
4:00 PM 96 °F - 71 °F 35% 29.63 in 6 mi West 15.7 mph - -   Partly Cloudy
4:00 PM 95.0 °F 103.2 °F 71.6 °F 47% 29.62 in 6.2 mi West 8.1 mph - N/A   Mostly Cloudy
4:30 PM 95.0 °F 103.2 °F 71.6 °F 47% 29.62 in 6.2 mi West 8.1 mph - N/A   Mostly Cloudy
5:00 PM 93.2 °F 102.4 °F 73.4 °F 52% 29.62 in 6.2 mi SSW 11.5 mph - N/A   Mostly Cloudy
5:30 PM 93.2 °F 102.4 °F 73.4 °F 52% 29.62 in 6.2 mi WSW 9.2 mph - N/A   Mostly Cloudy
6:00 PM 89.6 °F 99.8 °F 75.2 °F 62% 29.62 in 6.2 mi WSW 11.5 mph - N/A   Mostly Cloudy
6:30 PM 89.6 °F 99.8 °F 75.2 °F 62% 29.62 in 6.2 mi WSW 11.5 mph - N/A   Mostly Cloudy
7:00 PM 88 °F - 74 °F 56% 29.67 in 6 mi SSW 22.4 mph - -   Partly Cloudy
7:00 PM 87.8 °F 97.6 °F 75.2 °F 66% 29.65 in 6.2 mi WSW 11.5 mph - N/A   Mostly Cloudy
7:30 PM 87.8 °F 97.6 °F 75.2 °F 66% 29.68 in 6.2 mi WSW 11.5 mph - N/A   Mostly Cloudy
8:00 PM 86.0 °F 95.1 °F 75.2 °F 70% 29.68 in 6.2 mi WSW 19.6 mph - N/A   Mostly Cloudy
8:30 PM 80.6 °F 85.4 °F 73.4 °F 79% 29.71 in 6.2 mi SW 12.7 mph - N/A Rain Light Rain
9:00 PM 80.6 °F 85.4 °F 73.4 °F 79% 29.71 in 6.2 mi SSW 9.2 mph - N/A   Mostly Cloudy
9:30 PM 80.6 °F 85.4 °F 73.4 °F 79% 29.71 in 6.2 mi SW 10.4 mph - N/A   Mostly Cloudy
10:00 PM 81 °F - 73 °F 70% 29.74 in 6 mi West 22.4 mph - -   Partly Cloudy
10:00 PM 80.6 °F 85.4 °F 73.4 °F 79% 29.74 in 6.2 mi West 11.5 mph - N/A   Mostly Cloudy
10:30 PM 80.6 °F 85.4 °F 73.4 °F 79% 29.74 in 6.2 mi WSW 9.2 mph - N/A   Mostly Cloudy
11:00 PM 80.6 °F 85.4 °F 73.4 °F 79% 29.74 in 6.2 mi SW 4.6 mph - N/A   Mostly Cloudy
11:30 PM 80.6 °F 85.4 °F 73.4 °F 79% 29.74 in 6.2 mi SW 5.8 mph - N/A   Mostly Cloudy